Probability
0 0 0 0 0 0 0 0 0 0 0 0 0 0 0 0 0 0 0 0 0 0 0 0 0 0 1 2 2 2 1 0 0 0 0 0 0 0 0 0 0 0 0 0
0 0 0 0 0 0 0 0 0 0 0 0 0 0 0 0 0 0 0 0 0 0 0 0 0 0 0 1 1 1 0 0 0 0 0 0 0 0 0 0 0 0 0 0
0 0 0 0 0 0 0 0 0 0 0 0 0 0 0 0 0 0 0 0 0 0 0 0 0 0 0 0 0 0 0 0 0 0 0 0 0 0 0 0 0 0 0 0
0 0 0 0 0 0 0 0 0 0 0 0 0 0 0 0 0 0 0 0 0 0 0 0 0 0 0 0 0 0 0 0 0 0 0 0 0 0 0 0 0 0 0 0
0 0 0 0 0 0 0 0 0 0 0 0 0 0 0 0 0 0 0 0 0 0 0 0 0 0 0 0 0 0 0 0 0 0 0 0 0 0 0 0 0 0 0 0
0 0 0 0 0 0 0 0 0 0 0 0 0 0 0 0 0 0 0 0 0 0 0 0 0 0 0 0 0 0 0 0 0 0 0 0 0 0 0 0 0 0 0 0
0 0 0 0 0 0 0 0 0 0 0 0 0 0 0 0 0 0 0 0 0 0 0 0 0 0 0 0 0 0 0 0 0 0 0 0 0 0 0 0 0 0 0 0
0 0 0 0 0 0 0 0 0 0 0 0 0 0 0 0 0 0 0 0 0 0 0 0 1 0 0 0 0 0 0 0 0 0 0 0 0 0 0 0 0 0 0 0
0 0 0 0 0 0 0 0 0 0 0 0 0 0 0 0 0 0 0 0 0 0 0 0 0 0 0 0 0 0 0 0 0 0 0 0 0 0 0 0 0 0 0 0
0 0 0 0 0 0 0 0 0 0 0 0 0 0 0 0 0 0 0 0 0 0 0 0 0 0 0 0 0 0 0 0 0 0 0 0 0 0 0 0 0 0 0 0
0 0 0 0 0 0 0 0 0 0 0 0 0 0 0 0 0 0 0 0 0 0 0 1 0 0 0 0 0 0 0 0 0 0 0 0 0 0 0 0 0 0 0 0
0 0 0 0 0 0 0 0 0 0 0 0 0 0 0 0 0 0 0 0 0 0 2 4 3 2 0 0 0 0 0 0 0 0 0 0 0 0 0 0 0 0 0 0
0 0 0 0 0 0 0 0 0 0 0 0 0 0 0 0 0 0 0 0 0 3 9 13 10 4 1 0 0 0 0 0 0 0 0 0 0 0 0 0 0 0 0 0
0 0 0 0 0 0 0 0 0 0 0 0 0 0 0 0 0 0 0 0 0 5 16 20 12 4 1 0 0 0 0 0 0 0 0 0 0 0 0 0 0 0 0 0
0 0 0 0 0 0 0 0 0 0 0 0 0 0 0 0 0 0 0 0 0 4 12 15 8 2 0 0 0 0 0 0 0 0 0 0 0 0 0 0 0 0 0 0
0 0 0 0 0 0 0 0 0 0 0 0 0 0 0 0 0 0 0 0 0 1 4 4 2 0 0 1 1 1 0 0 0 0 0 0 0 0 0 0 0 0 0 0
0 0 0 0 0 0 0 0 0 0 0 0 0 0 0 0 0 0 0 0 0 0 0 0 0 0 0 2 3 3 2 0 0 0 0 0 0 0 0 0 0 0 0 0
0 0 0 0 0 0 0 0 0 0 0 0 0 0 0 0 0 0 0 0 0 0 0 0 0 0 0 1 2 3 3 1 0 0 0 0 0 0 0 0 0 0 0 0
0 0 0 0 0 0 0 0 0 0 0 0 0 0 0 0 0 0 0 0 0 0 0 0 0 0 0 0 0 2 2 2 0 0 0 1 0 0 0 0 0 0 0 0
0 0 0 0 0 0 0 0 0 0 0 0 0 0 0 0 0 0 0 0 0 0 0 0 0 0 0 0 0 0 1 1 0 0 0 0 0 0 0 0 0 0 0 0
0 0 0 0 0 0 0 0 0 0 0 0 0 0 0 0 0 0 0 0 0 0 0 0 0 0 0 0 0 0 0 0 0 0 0 0 0 0 0 0 0 0 0 0
0 0 0 0 0 0 0 0 0 0 0 0 0 0 0 0 0 0 0 0 0 0 0 0 0 0 0 0 0 0 0 0 0 0 0 0 0 0 0 0 0 0 0 0
0 0 0 0 0 0 0 0 0 0 0 0 0 0 0 0 0 0 0 0 0 0 0 0 0 0 0 0 0 0 0 0 0 0 0 0 0 0 0 0 0 0 0 0
0 0 0 0 0 0 0 0 0 0 0 0 0 0 0 0 0 0 0 0 0 0 0 0 0 0 0 0 0 0 0 0 0 0 0 0 0 0 0 0 0 0 0 0
0 0 0 0 0 0 0 0 0 0 0 0 0 0 0 0 0 0 0 0 0 0 0 0 0 0 0 0 0 0 0 0 0 0 0 0 0 0 0 0 0 0 0 0
0 0 0 0 0 0 0 0 0 0 0 0 0 0 0 0 0 0 0 0 0 0 0 0 0 0 0 0 0 0 0 0 0 0 0 0 0 0 0 0 0 0 0 0
Wind_Speed
2 2 1 4 4 5 4 5 6 7 9 4 7 10 11 10 4 3 6 7 7 7 5 4 4 5 6 6 6 6 6 5 5 4 4 4 4 3 2 3 5 6 8 8
3 3 6 7 8 8 9 8 7 8 9 6 5 6 6 5 6 8 13 11 9 7 5 4 4 3 4 5 5 5 5 4 4 3 2 2 2 1 2 2 4 6 7 8
6 6 7 10 11 9 8 7 7 7 6 6 3 6 6 5 1 6 10 10 9 11 9 7 5 3 4 5 6 7 7 6 5 3 1 1 2 2 2 1 2 4 7 8
7 9 9 12 15 11 8 8 7 6 2 4 1 5 9 5 3 5 6 7 7 8 8 8 8 6 5 4 5 6 7 6 5 4 3 2 2 2 2 1 1 2 6 7
7 6 9 11 15 12 9 7 5 3 2 3 3 2 9 1 5 6 6 7 7 7 8 8 9 9 7 6 5 5 6 6 5 6 5 4 3 2 3 3 3 4 3 3
9 7 7 8 5 4 4 1 5 4 4 4 6 5 8 4 7 6 4 5 7 7 6 6 7 8 7 6 6 5 5 5 6 6 6 6 7 7 7 6 5 3 3 2
6 7 7 7 5 3 3 6 3 4 2 7 5 4 8 5 5 7 8 7 7 8 7 7 8 8 8 9 8 6 6 6 5 5 5 6 7 8 9 8 5 4 3 2
4 7 5 6 10 8 5 9 7 5 5 5 5 4 6 2 4 6 7 7 7 8 8 8 9 9 9 10 9 7 7 6 7 6 6 6 7 4 5 7 6 6 5 4
6 6 5 4 6 10 6 6 8 5 2 3 5 3 5 4 2 4 6 7 8 8 8 9 9 9 9 9 9 8 8 6 7 7 6 6 6 6 7 7 6 5 6 6
8 6 7 5 3 4 6 7 6 5 3 4 4 3 5 7 8 7 7 8 9 8 7 7 8 9 9 9 8 7 7 7 6 6 6 6 6 6 7 7 6 5 4 4
1 5 5 3 3 5 3 2 3 4 4 5 4 7 7 10 11 10 11 10 10 9 9 8 8 8 8 7 7 7 6 5 5 6 6 7 7 7 7 7 7 6 6 7
5 3 3 4 4 1 3 3 5 4 5 4 4 9 7 7 8 8 10 9 8 9 9 8 8 7 7 8 7 7 5 5 5 5 5 6 6 7 7 7 7 8 7 7
1 3 2 6 6 6 2 1 4 4 2 2 4 9 6 3 5 7 8 8 9 9 8 7 7 8 8 8 8 7 7 6 5 5 5 4 5 6 7 8 7 7 6 4
5 4 5 6 6 3 4 4 5 6 4 4 8 9 8 6 7 8 7 7 9 10 10 10 9 9 8 9 9 9 8 8 7 6 6 5 5 5 5 5 5 4 3 3
4 4 4 6 7 4 6 8 6 6 8 9 9 10 11 8 7 8 7 5 7 8 9 11 11 10 9 9 10 10 9 9 8 7 7 7 6 5 5 4 4 4 3 4
1 2 1 4 4 3 6 10 10 10 8 9 11 13 11 7 5 5 4 6 8 9 10 11 10 9 9 11 11 11 10 10 9 10 10 8 7 7 7 6 6 5 4 3
2 3 1 4 4 6 9 10 9 8 8 10 14 14 7 4 5 7 7 7 8 7 6 5 5 5 5 6 8 10 10 9 10 11 10 9 8 8 8 7 5 5 4 2
7 5 2 2 2 7 11 5 6 7 11 12 11 9 8 8 7 5 7 8 7 7 6 5 5 4 2 0 3 6 6 8 10 10 10 10 9 9 8 8 7 6 4 3
6 7 4 2 2 8 13 8 4 4 9 9 8 6 6 5 3 2 1 5 7 7 7 6 5 5 4 4 2 3 4 5 7 8 8 9 10 10 9 9 8 5 4 3
5 5 5 4 2 6 11 7 6 4 7 7 1 5 6 7 4 4 0 5 8 8 7 7 6 6 6 4 5 7 5 4 2 5 7 9 10 11 10 8 6 4 3 4
2 2 3 4 3 9 12 8 3 1 6 5 1 5 6 7 6 6 8 7 7 8 7 7 7 6 5 4 7 7 6 5 2 2 2 4 5 7 7 6 5 4 4 4
3 3 3 4 4 10 4 7 3 6 6 1 2 3 5 5 7 9 9 8 8 7 6 6 6 5 4 5 7 7 4 3 4 4 4 3 3 4 5 6 5 5 5 5
1 2 2 4 7 7 9 10 15 14 9 3 3 3 6 7 7 8 8 8 7 6 5 4 5 4 3 3 5 6 4 4 5 4 3 2 3 3 3 4 5 4 4 3
3 1 2 5 11 13 15 15 18 13 7 4 5 5 7 7 8 8 9 7 7 5 5 4 4 3 2 2 3 4 4 4 4 3 2 2 2 2 2 2 3 4 4 3
4 1 2 6 9 13 12 13 19 18 6 4 4 4 6 9 9 10 9 9 7 5 5 5 5 4 4 4 3 2 3 4 3 3 3 3 2 2 2 2 2 2 3 4
6 6 5 6 6 9 17 21 23 22 14 3 3 2 3 6 11 11 10 9 8 6 5 4 4 4 3 3 4 3 4 4 3 2 2 2 2 2 2 3 3 7 3 4
Wind_Direction
17 65 242 245 221 222 250 252 263 270 278 280 248 241 249 255 252 175 145 147 131 119 108 86 71 99 121 136 144 154 157 162 153 150 157 170 198 207 202 217 205 170 163 171
38 284 260 269 264 253 253 258 265 279 287 291 264 255 258 271 245 186 164 164 154 137 127 109 91 102 132 150 159 159 167 167 166 160 152 149 165 185 197 208 193 169 161 157
195 234 266 279 276 258 245 231 242 258 307 344 315 310 308 312 5 151 162 167 160 156 153 148 141 138 145 156 164 172 180 183 178 170 128 80 74 50 79 116 186 163 147 147
225 232 238 259 270 263 256 243 243 260 294 293 335 291 288 254 213 191 186 173 170 161 154 156 153 156 168 172 161 158 175 192 195 185 187 171 154 168 157 148 221 129 132 144
237 227 223 236 255 249 239 247 249 264 253 303 307 268 285 173 203 212 204 187 176 170 171 170 165 165 169 166 167 170 176 192 195 196 197 166 148 139 121 105 83 86 97 118
245 246 227 223 253 231 218 55 15 42 69 303 249 197 275 241 207 188 198 193 182 186 197 187 166 158 164 169 172 174 180 194 191 189 178 162 158 149 136 117 104 105 111 89
286 262 237 222 244 289 107 88 18 344 18 252 260 204 247 248 185 172 183 191 190 192 192 186 173 171 170 174 178 175 174 184 187 186 182 172 172 167 152 140 136 139 126 100
260 277 251 211 194 189 180 148 170 201 212 268 307 243 257 253 178 175 174 177 184 188 189 189 186 181 176 177 178 174 174 178 181 186 190 183 179 163 139 143 153 156 147 148
229 261 287 250 189 154 163 185 176 148 231 266 281 295 329 304 249 181 181 186 193 193 192 192 185 179 176 176 180 180 178 181 181 181 178 178 174 156 149 153 159 159 161 163
209 259 285 290 110 142 152 150 107 133 183 237 270 233 228 233 238 232 215 211 212 205 196 190 180 178 179 180 183 185 186 190 186 177 177 180 180 168 160 160 163 164 169 177
180 221 292 343 189 208 156 154 139 149 170 174 232 262 226 206 214 219 223 219 215 206 198 190 184 178 170 169 174 180 185 187 193 188 180 180 184 176 167 170 175 177 185 193
8 63 306 305 319 2 140 178 151 176 239 190 188 263 259 229 236 226 226 226 216 201 194 184 177 170 164 165 167 166 164 170 190 193 183 179 175 173 177 184 189 189 189 194
64 98 1 337 339 6 36 103 133 142 134 190 198 262 286 244 251 244 235 227 200 189 183 173 171 176 177 172 169 168 166 167 173 174 169 160 158 167 183 191 193 193 190 198
140 146 177 209 236 254 263 252 173 150 170 226 228 251 287 298 296 288 259 219 186 183 179 178 185 190 187 179 176 176 178 174 170 170 169 173 174 171 181 191 199 202 202 221
108 152 206 237 255 235 233 253 257 234 204 207 235 238 246 254 267 281 259 199 179 182 183 189 195 198 193 186 185 186 185 180 175 178 188 193 187 183 187 205 217 217 215 221
84 176 270 285 284 296 264 249 246 251 239 230 239 250 244 242 240 262 243 190 189 193 195 200 204 202 201 196 193 194 193 188 182 189 202 198 184 186 194 205 210 212 212 205
174 152 113 277 311 345 282 247 233 232 228 227 237 242 240 220 217 225 220 205 196 185 181 188 198 203 212 215 205 203 201 189 191 200 203 197 189 189 195 196 192 196 195 186
170 155 189 269 12 259 257 260 247 262 263 245 238 232 209 205 211 219 198 171 157 140 126 116 107 94 73 113 198 202 192 187 196 201 198 193 190 192 187 184 189 191 184 193
169 153 152 148 233 279 288 282 243 250 276 267 244 216 182 166 94 349 232 144 139 131 128 119 112 100 60 34 49 115 151 184 197 200 192 191 189 191 186 189 192 186 182 200
60 106 126 131 168 258 266 290 327 346 308 307 151 159 156 134 133 231 156 98 101 103 106 105 99 84 62 37 61 78 85 105 182 210 199 192 191 189 187 188 183 180 186 209
52 61 123 148 204 260 267 294 313 203 262 293 137 156 161 180 194 166 128 116 114 112 109 101 86 73 61 67 79 73 69 69 70 86 132 179 191 190 183 177 170 181 191 205
182 182 187 164 214 252 339 348 305 268 279 215 143 163 162 152 127 128 133 132 125 118 112 105 96 85 73 91 96 89 84 89 83 77 80 98 134 178 182 168 167 175 176 183
228 208 215 220 243 286 337 307 292 291 269 214 146 155 141 138 147 145 147 143 132 127 131 129 124 114 99 112 120 123 153 137 108 92 81 84 102 115 143 158 160 159 161 162
299 293 256 276 281 309 314 316 313 291 232 182 171 162 157 164 162 157 154 146 140 144 150 148 143 155 205 210 168 160 167 144 117 113 113 113 112 115 141 156 157 154 164 169
278 316 297 279 301 318 314 326 332 323 289 175 186 180 164 161 165 166 161 155 158 167 167 159 169 200 236 240 227 201 158 127 103 95 115 119 122 115 96 90 89 174 185 177
223 223 231 252 288 297 295 303 315 317 297 246 174 176 168 164 170 164 161 161 166 175 173 177 196 218 251 231 204 179 150 133 119 97 108 124 120 100 99 109 79 50 71 118